{"data":{"norad_id":32729,"epoch":"2026-05-25T03:16:18.028128Z","epoch_age_seconds":60280,"freshness":"FRESH","line1":"1 32729U 08013A   26145.13631977 -.00000128  00000+0  00000+0 0  9990","line2":"2 32729   0.0033 247.5140 0000403 110.6154 194.4834  1.00272957 45363","mean_motion":1.00272957,"eccentricity":4.03e-5,"inclination_deg":0.0033,"raan_deg":247.514,"arg_perigee_deg":110.6154,"mean_anomaly_deg":194.4834,"bstar":0,"rev_number":4536,"period_min":1436.0801187902,"perigee_km":35784.567184789,"apogee_km":35787.965635703,"semimajor_km":42164.403410246,"source":"CELESTRAK","updated_at":"2026-05-25T13:38:14.326783Z"}}